When you browse on this site, cookies collect data to enhance your experience and personalize the content and advertising you see.
Visit our Privacy Policy to learn more. By continuing to use the site, you agree to this use of cookies and data.
  • In Deutschland
  • Länderverzeichnis
  • Für 7 Tage
  • Wassertemperatur
  • Satellitenkarten
  • Wetterkarte
  • Widgets
  • user-avatar
    Anmelden

    Stündliche Wetter Sherpur

    Heute, 19 Juli, Freitag

    Zeit Temperatur Niederschläge Wind Luftdruck Luftfeuchtigkeit
    00:00 +23°C° 0 mm 2 m/S 608 mmHg 60%
    01:00 +22°C° 0 mm 1 m/S 608 mmHg 64%
    02:00 +22°C° 0 mm 1 m/S 607 mmHg 68%
    03:00 +21°C° 0 mm 1 m/S 607 mmHg 69%
    04:00 +21°C° 0 mm 1 m/S 607 mmHg 71%
    05:00 +20°C° 0 mm 1 m/S 607 mmHg 72%
    06:00 +22°C° 0 mm 1 m/S 608 mmHg 63%
    07:00 +24°C° 0 mm 1 m/S 609 mmHg 54%
    08:00 +24°C° 0 mm 0 m/S 610 mmHg 45%
    09:00 +27°C° 0 mm 1 m/S 610 mmHg 36%
    10:00 +29°C° 0 mm 1 m/S 611 mmHg 27%
    11:00 +31°C° 0 mm 2 m/S 611 mmHg 18%
    12:00 +32°C° 0 mm 2 m/S 611 mmHg 16%
    13:00 +34°C° 0 mm 2 m/S 611 mmHg 14%
    14:00 +36°C° 0 mm 3 m/S 612 mmHg 12%
    15:00 +36°C° 0 mm 4 m/S 611 mmHg 12%
    16:00 +36°C° 0 mm 4 m/S 611 mmHg 13%
    17:00 +36°C° 0 mm 5 m/S 611 mmHg 13%
    18:00 +33°C° 0 mm 4 m/S 610 mmHg 22%
    19:00 +30°C° 0 mm 4 m/S 610 mmHg 31%
    20:00 +28°C° 0 mm 3 m/S 609 mmHg 39%
    21:00 +26°C° 0 mm 2 m/S 609 mmHg 43%
    22:00 +25°C° 0 mm 2 m/S 609 mmHg 47%
    23:00 +24°C° 0 mm 2 m/S 609 mmHg 50%

    Morgen, 20 Juli, Samstag

    Zeit Temperatur Niederschläge Wind Luftdruck Luftfeuchtigkeit
    00:00 +24°C° 0 mm 1 m/S 609 mmHg 54%
    01:00 +23°C° 0 mm 1 m/S 608 mmHg 57%
    02:00 +22°C° 0 mm 1 m/S 608 mmHg 61%
    03:00 +21°C° 0 mm 1 m/S 608 mmHg 63%
    04:00 +19°C° 0 mm 0 m/S 608 mmHg 65%
    05:00 +18°C° 0 mm 0 m/S 608 mmHg 67%
    06:00 +20°C° 0 mm 0 m/S 609 mmHg 58%
    07:00 +24°C° 0 mm 1 m/S 610 mmHg 50%
    08:00 +26°C° 0 mm 1 m/S 611 mmHg 41%
    09:00 +28°C° 0 mm 1 m/S 611 mmHg 33%
    10:00 +30°C° 0 mm 1 m/S 612 mmHg 24%
    11:00 +32°C° 0 mm 2 m/S 612 mmHg 16%
    12:00 +34°C° 0 mm 2 m/S 612 mmHg 14%
    13:00 +35°C° 0 mm 2 m/S 613 mmHg 13%
    14:00 +36°C° 0 mm 3 m/S 613 mmHg 11%
    15:00 +36°C° 0 mm 3 m/S 613 mmHg 11%
    16:00 +37°C° 0 mm 3 m/S 612 mmHg 11%
    17:00 +37°C° 0 mm 4 m/S 612 mmHg 11%
    18:00 +34°C° 0 mm 3 m/S 612 mmHg 17%
    19:00 +31°C° 0 mm 3 m/S 611 mmHg 23%
    20:00 +29°C° 0 mm 3 m/S 610 mmHg 30%
    21:00 +28°C° 0 mm 2 m/S 610 mmHg 34%
    22:00 +26°C° 0 mm 2 m/S 610 mmHg 38%
    23:00 +25°C° 0 mm 2 m/S 610 mmHg 42%

    übermorgen, 21 Juli, Sonntag

    Zeit Temperatur Niederschläge Wind Luftdruck Luftfeuchtigkeit
    00:00 +24°C° 0 mm 1 m/S 610 mmHg 45%
    01:00 +23°C° 0 mm 1 m/S 609 mmHg 47%
    02:00 +22°C° 0 mm 1 m/S 609 mmHg 49%
    03:00 +22°C° 0 mm 1 m/S 608 mmHg 49%
    04:00 +21°C° 0 mm 1 m/S 608 mmHg 50%
    05:00 +21°C° 0 mm 1 m/S 608 mmHg 50%
    06:00 +23°C° 0 mm 1 m/S 609 mmHg 43%
    07:00 +25°C° 0 mm 1 m/S 610 mmHg 35%
    08:00 +26°C° 0 mm 0 m/S 611 mmHg 28%
    09:00 +29°C° 0 mm 1 m/S 612 mmHg 23%
    10:00 +31°C° 0 mm 1 m/S 612 mmHg 18%
    11:00 +33°C° 0 mm 1 m/S 612 mmHg 13%
    12:00 +35°C° 0 mm 2 m/S 613 mmHg 12%
    13:00 +36°C° 0 mm 3 m/S 613 mmHg 11%
    14:00 +37°C° 0 mm 3 m/S 613 mmHg 10%
    15:00 +37°C° 0 mm 4 m/S 612 mmHg 10%
    16:00 +38°C° 0 mm 6 m/S 612 mmHg 9%
    17:00 +38°C° 0 mm 7 m/S 612 mmHg 9%
    18:00 +35°C° 0 mm 6 m/S 611 mmHg 11%
    19:00 +33°C° 0 mm 5 m/S 611 mmHg 13%
    20:00 +29°C° 0 mm 3 m/S 610 mmHg 16%
    21:00 +28°C° 0 mm 3 m/S 610 mmHg 17%
    22:00 +27°C° 0 mm 2 m/S 610 mmHg 19%
    23:00 +25°C° 0 mm 2 m/S 610 mmHg 21%

    22 Juli, Montag

    Zeit Temperatur Niederschläge Wind Luftdruck Luftfeuchtigkeit
    00:00 +24°C° 0 mm 2 m/S 609 mmHg 21%
    01:00 +24°C° 0 mm 2 m/S 609 mmHg 22%
    02:00 +23°C° 0 mm 1 m/S 608 mmHg 22%
    03:00 +22°C° 0 mm 1 m/S 608 mmHg 23%
    04:00 +22°C° 0 mm 1 m/S 608 mmHg 23%
    05:00 +22°C° 0 mm 1 m/S 608 mmHg 24%
    06:00 +24°C° 0 mm 1 m/S 609 mmHg 21%
    07:00 +27°C° 0 mm 1 m/S 610 mmHg 18%
    08:00 +29°C° 0 mm 1 m/S 611 mmHg 15%
    09:00 +31°C° 0 mm 2 m/S 612 mmHg 13%
    10:00 +33°C° 0 mm 3 m/S 612 mmHg 12%
    11:00 +35°C° 0 mm 4 m/S 612 mmHg 10%
    12:00 +36°C° 0 mm 5 m/S 612 mmHg 9%
    13:00 +38°C° 0 mm 6 m/S 612 mmHg 9%
    14:00 +38°C° 0 mm 7 m/S 612 mmHg 8%
    15:00 +38°C° 0 mm 8 m/S 612 mmHg 9%
    16:00 +38°C° 0 mm 8 m/S 611 mmHg 10%
    17:00 +38°C° 0 mm 8 m/S 611 mmHg 10%
    18:00 +34°C° 0 mm 7 m/S 610 mmHg 13%
    19:00 +32°C° 0 mm 5 m/S 610 mmHg 15%
    20:00 +29°C° 0 mm 4 m/S 609 mmHg 18%
    21:00 +27°C° 0 mm 3 m/S 609 mmHg 20%
    22:00 +26°C° 0 mm 2 m/S 609 mmHg 22%
    23:00 +24°C° 0 mm 2 m/S 608 mmHg 24%

    23 Juli, Dienstag

    Zeit Temperatur Niederschläge Wind Luftdruck Luftfeuchtigkeit
    00:00 +24°C° 0 mm 2 m/S 608 mmHg 26%
    01:00 +23°C° 0 mm 1 m/S 608 mmHg 27%
    02:00 +22°C° 0 mm 1 m/S 607 mmHg 29%
    03:00 +22°C° 0 mm 1 m/S 607 mmHg 30%
    04:00 +21°C° 0 mm 1 m/S 607 mmHg 31%
    05:00 +21°C° 0 mm 1 m/S 607 mmHg 32%
    06:00 +23°C° 0 mm 1 m/S 608 mmHg 28%
    07:00 +26°C° 0 mm 1 m/S 609 mmHg 24%
    08:00 +28°C° 0 mm 1 m/S 610 mmHg 21%
    09:00 +29°C° 0 mm 1 m/S 610 mmHg 18%
    10:00 +31°C° 0 mm 2 m/S 611 mmHg 16%
    11:00 +34°C° 0 mm 2 m/S 611 mmHg 14%
    12:00 +35°C° 0 mm 2 m/S 611 mmHg 13%
    13:00 +36°C° 0 mm 3 m/S 611 mmHg 12%
    14:00 +37°C° 0 mm 3 m/S 611 mmHg 11%
    15:00 +37°C° 0 mm 4 m/S 610 mmHg 11%
    16:00 +37°C° 0 mm 5 m/S 610 mmHg 11%
    17:00 +38°C° 0 mm 6 m/S 610 mmHg 11%
    18:00 +35°C° 0 mm 5 m/S 609 mmHg 14%
    19:00 +32°C° 0 mm 4 m/S 609 mmHg 17%
    20:00 +29°C° 0 mm 4 m/S 608 mmHg 20%
    21:00 +27°C° 0 mm 3 m/S 608 mmHg 21%
    22:00 +26°C° 0 mm 3 m/S 608 mmHg 23%
    23:00 +25°C° 0 mm 2 m/S 608 mmHg 25%

    24 Juli, Mittwoch

    Zeit Temperatur Niederschläge Wind Luftdruck Luftfeuchtigkeit
    00:00 +24°C° 0 mm 2 m/S 607 mmHg 26%
    01:00 +23°C° 0 mm 2 m/S 607 mmHg 28%
    02:00 +21°C° 0 mm 2 m/S 606 mmHg 29%
    03:00 +21°C° 0 mm 2 m/S 606 mmHg 30%
    04:00 +21°C° 0 mm 1 m/S 606 mmHg 31%
    05:00 +21°C° 0 mm 1 m/S 606 mmHg 32%
    06:00 +23°C° 0 mm 1 m/S 607 mmHg 28%
    07:00 +25°C° 0 mm 1 m/S 608 mmHg 24%
    08:00 +27°C° 0 mm 1 m/S 609 mmHg 20%
    09:00 +29°C° 0 mm 1 m/S 609 mmHg 17%
    10:00 +31°C° 0 mm 2 m/S 610 mmHg 15%
    11:00 +34°C° 0 mm 2 m/S 610 mmHg 13%
    12:00 +35°C° 0 mm 3 m/S 610 mmHg 11%
    13:00 +36°C° 0 mm 3 m/S 610 mmHg 10%
    14:00 +37°C° 0 mm 4 m/S 610 mmHg 9%
    15:00 +37°C° 0 mm 5 m/S 610 mmHg 9%
    16:00 +38°C° 0 mm 7 m/S 609 mmHg 10%
    17:00 +38°C° 0 mm 8 m/S 609 mmHg 10%
    18:00 +34°C° 0 mm 7 m/S 608 mmHg 12%
    19:00 +32°C° 0 mm 6 m/S 608 mmHg 15%
    20:00 +28°C° 0 mm 4 m/S 608 mmHg 17%
    21:00 +27°C° 0 mm 4 m/S 607 mmHg 19%
    22:00 +26°C° 0 mm 3 m/S 607 mmHg 21%
    23:00 +24°C° 0 mm 2 m/S 607 mmHg 23%
    Mehr zeigen